Change the Weather History Date:

Friday, February 15, 2013

  Actual Average Record
Temperature  
Mean Temperature 44 °F -  
Max Temperature 57 °F 56 °F 79 °F (1949)
Min Temperature 32 °F 38 °F 25 °F (1999)
Degree Days  
Heating Degree Days 20    
Moisture  
Dew Point 37 °F    
Average Humidity 82    
Maximum Humidity 100    
Minimum Humidity 47    
Precipitation  
Precipitation 0.00 in - - ()
Sea Level Pressure  
Sea Level Pressure 30.05 in    
Wind  
Wind Speed 2 mph (South)    
Max Wind Speed 14 mph    
Max Gust Speed -    
Visibility 9 miles    
Events      
Averages and records for this station are not official NWS values.
T = Trace of Precipitation, MM = Missing Value Source: NWS Daily Summary

Daily Weather History Graph

Daily Weather History Graph

Search for Another Location

Airport or City:

Trip Planner

Search our weather history database for the weather conditions in past years. The results will help you decide how hot, cold, wet, or windy it might be!

Date:

Astronomy

Feb. 15, 2013 Rise Set
Actual Time 6:59 AM EST 6:00 PM EST
Civil Twilight 6:34 AM EST 6:25 PM EST
Nautical Twilight 6:05 AM EST 6:55 PM EST
Astronomical Twilight 5:36 AM EST 7:24 PM EST
Moon 9:53 AM EST (2/15) 11:39 PM EST (2/15)
Length of Visible Light 11h 51m
Length of Day
11h 00m
Waxing Crescent, 30% of the Moon is Illuminated
Feb 15
Waxing Crescent
Feb 17
First Quarter
Feb 25
Full
Mar 4
Last Quarter
Mar 11
New

Hourly Weather History & Observations

Time (EST) Temp. Windchill Dew Point Humidity Pressure Visibility Wind Dir Wind Speed Gust Speed Precip Events Conditions
12:15 AM 39.2 °F - 37.4 °F 93% 30.06 in 10.0 mi Calm Calm - N/A   Clear
12:35 AM 39.2 °F - 37.4 °F 93% 30.06 in 10.0 mi Calm Calm - N/A   Clear
12:55 AM 39.2 °F - 35.6 °F 87% 30.06 in 10.0 mi Calm Calm - N/A   Clear
1:15 AM 39.2 °F 37.0 °F 37.4 °F 93% 30.08 in 10.0 mi West 3.5 mph - N/A   Clear
1:35 AM 37.4 °F - 35.6 °F 93% 30.07 in 8.0 mi Calm Calm - N/A   Clear
1:55 AM 37.4 °F - 33.8 °F 87% 30.08 in 10.0 mi Calm Calm - N/A   Clear
2:15 AM 37.4 °F - 35.6 °F 93% 30.08 in 8.0 mi Calm Calm - N/A   Clear
2:35 AM 37.4 °F - 35.6 °F 93% 30.07 in 5.0 mi Calm Calm - N/A   Clear
2:55 AM 35.6 °F - 33.8 °F 93% 30.08 in 3.0 mi Calm Calm - N/A   Clear
3:15 AM 37.4 °F - 35.6 °F 93% 30.07 in 10.0 mi Calm Calm - N/A   Clear
3:35 AM 37.4 °F - 35.6 °F 93% 30.07 in 4.0 mi Calm Calm - N/A   Clear
3:55 AM 35.6 °F - 33.8 °F 93% 30.06 in 8.0 mi Calm Calm - N/A   Clear
4:15 AM 35.6 °F - 33.8 °F 93% 30.05 in 9.0 mi Calm Calm - N/A   Clear
4:35 AM 37.4 °F - 35.6 °F 93% 30.05 in 10.0 mi Calm Calm - N/A   Clear
4:55 AM 37.4 °F - 35.6 °F 93% 30.05 in 10.0 mi Calm Calm - N/A   Clear
5:15 AM 35.6 °F - 32.0 °F 87% 30.06 in 8.0 mi Calm Calm - N/A   Clear
5:35 AM 35.6 °F - 33.8 °F 93% 30.07 in 5.0 mi Calm Calm - N/A   Clear
6:45 AM 32.0 °F - 30.2 °F 93% 30.08 in 8.0 mi Calm Calm - N/A   Clear
7:45 AM 35.6 °F - 33.8 °F 93% 30.09 in 10.0 mi Calm Calm - N/A   Clear
8:50 AM 44.6 °F 40.7 °F 41.0 °F 87% 30.11 in 10.0 mi Variable 6.9 mph - N/A   Clear
9:48 AM 51.8 °F - 39.2 °F 62% 30.11 in 10.0 mi North 9.2 mph - N/A   Clear
10:45 AM 55.4 °F - 39.2 °F 54% 30.10 in 10.0 mi North 8.1 mph - N/A   Clear
11:45 AM 57.2 °F - 37.4 °F 48% 30.08 in 10.0 mi ESE 9.2 mph - N/A   Clear
12:45 PM 55.4 °F - 41.0 °F 58% 30.07 in 10.0 mi SSE 12.7 mph - N/A   Clear
1:45 PM 55.4 °F - 37.4 °F 51% 30.05 in 10.0 mi SSE 12.7 mph - N/A   Clear
3:45 PM 55.4 °F - 35.6 °F 47% 30.00 in 10.0 mi South 13.8 mph - N/A   Clear
4:45 PM 53.6 °F - 39.2 °F 58% 30.00 in 10.0 mi South 11.5 mph - N/A   Clear
5:45 PM 51.8 °F - 39.2 °F 62% 29.98 in 10.0 mi South 11.5 mph - N/A   Clear
6:45 PM 50.0 °F - 39.2 °F 66% 29.99 in 10.0 mi SW 6.9 mph - N/A   Clear
7:45 PM 46.4 °F - 39.2 °F 76% 30.00 in 10.0 mi Calm Calm - N/A   Clear
8:45 PM 44.6 °F - 41.0 °F 87% 29.99 in 10.0 mi Calm Calm - N/A   Clear
9:50 PM 42.8 °F - 39.2 °F 87% 29.99 in 10.0 mi Calm Calm - N/A   Clear
10:55 PM 41.0 °F - 39.2 °F 93% 29.98 in 10.0 mi Calm Calm - N/A   Clear
11:15 PM 39.2 °F - 39.2 °F 100% 29.98 in 10.0 mi Calm Calm - N/A   Clear
11:35 PM 41.0 °F 39.0 °F 39.2 °F 93% 29.97 in 10.0 mi SSW 3.5 mph - N/A   Clear
11:55 PM 42.8 °F - 39.2 °F 87% 29.97 in 10.0 mi Calm Calm - N/A   Clear